Home > Weather > Weyhe > Past weeks

Flag for Germany Weather for the Past 2 Weeks in Weyhe, Lower Saxony, Germany

Now
36 °F

Clear.


Feels Like: 30 °F
Forecast: 42 / 52 °F
Wind: 7 mph from Southeast

Location: Bremen Airport

Current Time: Apr 29, 2016 at 7:07:01 AM

Latest Report: Apr 29, 2016 at 6:20 AM


Visibility: 10 mi

Pressure: 29.92 "Hg

Humidity: 93%

Dew Point: 34 °F

Location of WeyheLocation

Historic Weather in Weyhe — Graph

°F

Weyhe Temperature Yesterday

Maximum temperature yesterday: 48 °F (at 12:50 PM)
Minimum temperature yesterday: 36 °F (at 3:50 AM)
Average temperature yesterday: 41 °F

High & Low Weather Summary for the Past Weeks

 TemperatureHumidityPressure
High59 °F (Apr 14, 3:50 PM)100% (Apr 14, 8:20 AM)30.45 "Hg (Apr 14, 8:20 AM)
Low28 °F (Apr 25, 2:20 AM)41% (Apr 21, 2:20 PM)29.36 "Hg (Apr 26, 12:20 PM)
Average44 °F78%29.88 "Hg
* Reported Apr 14 5:20 AM — Apr 29 5:50 AM, Weyhe, Weather by CustomWeather, © 2016

Note: Actual official high and low records may vary slightly from our data, if they occured in-between our weather recording intervals... More about our weather records

Advertising

Weyhe Weather History for the Previous 24 Hours

Scroll right to see more
 ConditionsComfort  
Time TempWeatherWind HumidityBarometerVisibility
5:50 AM
Fri, Apr 29
36 °FClear.6 mph93%29.92 "Hg6 mi
5:20 AM36 °FClear.8 mph93%29.92 "Hg6 mi
4:20 AM34 °FClear.7 mph93%29.95 "Hg10 mi
3:50 AM34 °FClear.5 mph93%29.95 "Hg10 mi
3:20 AM34 °FClear.7 mph93%29.95 "Hg10 mi
2:50 AM34 °FClear.6 mph93%29.95 "Hg10 mi
2:20 AM34 °FClear.3 mph93%29.95 "Hg10 mi
1:50 AM34 °FClear.3 mph100%29.95 "Hg10 mi
1:20 AM34 °FClear.3 mph100%29.95 "Hg10 mi
12:50 AM34 °FClear.3 mph100%29.95 "Hg10 mi
12:20 AM36 °FPassing clouds.5 mph93%29.95 "HgN/A
11:50 PM
Thu, Apr 28
36 °FPassing clouds.5 mph93%29.98 "HgN/A
11:20 PM36 °FPassing clouds.7 mph93%29.95 "HgN/A
10:50 PM36 °FPassing clouds.6 mph93%29.98 "HgN/A
10:20 PM37 °FPassing clouds.5 mph93%29.98 "HgN/A
9:50 PM37 °FPassing clouds.3 mph93%29.98 "HgN/A
9:20 PM39 °FPartly sunny.6 mph87%29.98 "HgN/A
8:50 PM41 °FPartly sunny.12 mph87%29.98 "HgN/A
8:20 PM41 °FScattered clouds.6 mph87%29.95 "HgN/A
7:50 PM41 °FPartly sunny.3 mph81%29.95 "HgN/A
7:20 PM41 °FSprinkles. Partly sunny.14 mph81%29.95 "HgN/A
6:50 PM43 °FScattered showers. Scattered clouds.15 mph76%29.95 "HgN/A
6:20 PM46 °FScattered showers. Scattered clouds.6 mph66%29.92 "HgN/A
5:50 PM48 °FSprinkles. Scattered clouds.7 mph58%29.92 "HgN/A
5:20 PM48 °FScattered showers. Partly sunny.6 mph58%29.92 "HgN/A
4:50 PM46 °FPartly sunny.6 mph66%29.92 "HgN/A
4:20 PM46 °FScattered showers. Scattered clouds.5 mph71%29.95 "HgN/A
3:50 PM45 °FSprinkles. Scattered clouds.12 mph71%29.95 "HgN/A
3:20 PM45 °FSprinkles. Scattered clouds.17 mph71%29.95 "HgN/A
2:20 PM45 °FSprinkles. Scattered clouds.7 mph66%29.92 "HgN/A
1:20 PM46 °FSprinkles. Scattered clouds.13 mph62%29.89 "HgN/A
12:50 PM48 °FSprinkles. Scattered clouds.10 mph71%29.89 "HgN/A
12:20 PM46 °FSprinkles. Scattered clouds.12 mph62%29.89 "HgN/A
11:50 AM46 °FScattered showers. Scattered clouds.12 mph71%29.89 "HgN/A
11:20 AM43 °FSprinkles. Scattered clouds.14 mph76%29.89 "HgN/A
10:20 AM45 °FScattered showers. Partly sunny.14 mph81%29.89 "HgN/A
9:50 AM43 °FScattered showers. Scattered clouds.10 mph81%29.86 "HgN/A
9:20 AM41 °FSprinkles. Broken clouds.10 mph87%29.86 "HgN/A
7:50 AM39 °FBroken clouds.12 mph87%29.83 "HgN/A
7:20 AM37 °FPartly sunny.10 mph93%29.83 "HgN/A
Weather by CustomWeather, © 2016

See weather overviewHow to use our weather pages